GW1838 Weather Reports


time (UTC)temp
C
wind
direction
speed
KPH
gust
KPH
rain 1hr
cm
rain 24hr
cm
rain mn
cm
humidity
%
barometer
mb
20260506091806 13 212 20.9 33.8 0.00 0.00 0.00 92 1010.8
20260506090306 13 201 19.3 32.2 0.00 0.00 0.00 92 1010.9
20260506082305 13 203 22.5 33.8 0.00 0.00 0.00 91 1010.9
20260506081305 13 213 20.9 33.8 0.00 0.00 0.00 91 1011.0
20260506080805 13 209 17.7 32.2 0.00 0.00 0.00 91 1011.0
20260506080305 13 218 22.5 33.8 0.00 0.00 0.00 91 1011.0
20260506073305 14 213 25.7 48.3 0.00 0.00 0.00 89 1011.2
20260506072805 14 207 25.7 41.8 0.00 0.00 0.00 89 1011.3
20260506070806 14 204 24.1 33.8 0.00 0.00 0.00 89 1011.2
20260506070306 14 211 24.1 41.8 0.00 0.00 0.00 89 1011.3
20260506061306 15 204 27.4 40.2 0.00 0.00 0.00 86 1011.2
20260506060805 15 213 24.1 37.0 0.00 0.00 0.00 86 1011.2
20260506060306 15 207 20.9 32.2 0.00 0.00 0.00 86 1011.2
20260506050305 14 209 24.1 38.6 0.00 0.00 0.00 86 1011.8
20260506044305 14 215 22.5 33.8 0.00 0.00 0.00 87 1011.7
20260506042305 13 204 20.9 35.4 0.00 0.00 0.00 87 1011.8
20260506040839 13 212 22.5 41.8 0.00 0.00 0.00 87 1011.8
20260506035808 13 212 19.3 32.2 0.00 0.00 0.00 87 1011.8
20260506035306 13 202 19.3 37.0 0.00 0.00 0.00 87 1011.9
20260506034806 13 224 16.1 32.2 0.00 0.00 0.00 87 1011.9
20260506034305 13 206 19.3 32.2 0.00 0.00 0.00 87 1011.9
20260506033805 13 203 17.7 32.2 0.00 0.00 0.00 86 1011.9
20260506033306 13 209 16.1 29.0 0.00 0.00 0.00 86 1011.9
20260506032804 13 212 19.3 35.4 0.00 0.00 0.00 86 1011.9
20260506030805 13 215 22.5 33.8 0.00 0.00 0.00 85 1012.0
20260506030307 14 201 22.5 37.0 0.00 0.00 0.00 85 1012.0
20260506024305 15 211 27.4 41.8 0.00 0.00 0.00 84 1012.0
20260506023305 15 205 20.9 40.2 0.00 0.00 0.00 83 1012.1
20260506021805 15 214 25.7 41.8 0.00 0.00 0.00 82 1012.1
20260506021305 15 202 25.7 40.2 0.00 0.00 0.00 82 1012.1
20260506020805 15 199 27.4 40.2 0.00 0.00 0.00 83 1012.1
20260506020305 15 215 22.5 38.6 0.00 0.00 0.00 83 1012.0
20260506015306 15 205 24.1 41.8 0.00 0.00 0.00 82 1011.9
20260506014807 15 206 25.7 38.6 0.00 0.00 0.00 82 1012.0
20260506014305 15 230 20.9 33.8 0.00 0.00 0.00 83 1012.0
20260506013806 15 200 20.9 37.0 0.00 0.00 0.00 83 1011.9
20260506013305 15 221 19.3 32.2 0.00 0.00 0.00 83 1011.9
20260506012307 15 216 20.9 33.8 0.00 0.00 0.00 83 1011.9
20260506011305 15 206 27.4 40.2 0.00 0.00 0.00 84 1011.8
20260506010805 15 210 20.9 37.0 0.00 0.00 0.00 83 1011.7
20260506005805 15 217 19.3 33.8 0.00 0.00 0.00 83 1011.5
20260506004305 15 197 25.7 37.0 0.00 0.00 0.00 82 1011.4
20260506003804 15 204 22.5 46.7 0.00 0.00 0.00 82 1011.4
20260506003305 15 206 25.7 41.8 0.00 0.00 0.00 82 1011.5
20260506002805 15 200 25.7 38.6 0.00 0.00 0.00 82 1011.5
20260506001304 15 186 25.7 33.8 0.00 0.00 0.00 82 1011.2
20260506000804 15 211 20.9 40.2 0.00 0.00 0.00 81 1011.3
20260505235305 15 216 20.9 40.2 0.00 0.00 0.00 81 1011.1
20260505234305 15 228 20.9 37.0 0.00 0.00 0.00 79 1011.1
20260505233805 15 194 25.7 51.5 0.00 0.00 0.00 79 1011.1
20260505231804 16 208 20.9 35.4 0.00 0.00 0.00 76 1011.0
20260505230305 16 206 22.5 38.6 0.00 0.00 0.00 77 1010.9
20260505225306 16 210 24.1 37.0 0.00 0.00 0.00 77 1010.5
20260505224804 16 201 24.1 40.2 0.00 0.00 0.00 77 1010.6
20260505224305 16 203 24.1 46.7 0.00 0.00 0.00 76 1010.5
20260505222306 17 208 20.9 33.8 0.00 0.00 0.00 74 1010.5
20260505220805 17 205 12.9 32.2 0.00 0.00 0.00 74 1010.5
20260505214805 16 204 25.7 51.5 0.00 0.00 0.00 75 1010.3
20260505205804 16 219 27.4 40.2 0.00 0.00 0.00 75 1009.9
20260505205305 16 183 27.4 46.7 0.00 0.00 0.00 76 1009.9
20260505204804 16 195 25.7 37.0 0.00 0.00 0.00 76 1009.9
20260505204304 16 208 22.5 41.8 0.00 0.00 0.00 76 1009.9
20260505202804 16 203 19.3 37.0 0.00 0.00 0.00 78 1009.9
20260505202306 16 219 19.3 38.6 0.00 0.00 0.00 79 1009.9
20260505201804 15 192 22.5 38.6 0.00 0.00 0.00 78 1009.9
20260505200305 15 210 22.5 37.0 0.00 0.00 0.00 79 1009.9
20260505195305 15 197 25.7 33.8 0.00 0.00 0.00 79 1010.1
20260505194304 15 201 27.4 41.8 0.00 0.00 0.00 78 1010.2
20260505193804 16 215 24.1 37.0 0.00 0.00 0.00 78 1010.2
20260505193304 16 211 20.9 38.6 0.00 0.00 0.00 78 1010.3
20260505192805 16 210 25.7 40.2 0.00 0.00 0.00 78 1010.5
20260505192305 16 211 16.1 32.2 0.00 0.00 0.00 79 1010.6
20260505191805 15 193 20.9 41.8 0.00 0.00 0.00 80 1010.6
20260505190304 15 193 19.3 32.2 0.00 0.00 0.00 80 1010.6
20260505185804 15 195 22.5 35.4 0.00 0.00 0.00 80 1010.6
20260505184805 15 192 19.3 33.8 0.00 0.00 0.00 79 1010.7
20260505183805 15 202 20.9 32.2 0.00 0.00 0.00 79 1010.7
20260505182306 15 201 20.9 38.6 0.00 0.00 0.00 79 1010.8
20260505181305 15 192 19.3 32.2 0.00 0.00 0.00 79 1011.0
20260505180804 15 197 17.7 37.0 0.00 0.00 0.00 80 1011.0
20260505173805 15 201 17.7 32.2 0.00 0.00 0.00 80 1011.2
20260505172306 15 192 17.7 29.0 0.00 0.00 0.00 81 1011.1
20260505171304 15 195 22.5 37.0 0.00 0.00 0.00 81 1011.1
20260505170304 15 195 20.9 33.8 0.00 0.00 0.00 81 1010.9
20260505165804 15 198 19.3 32.2 0.00 0.00 0.00 81 1011.0
20260505164804 15 206 17.7 32.2 0.00 0.00 0.00 80 1011.1
20260505163304 15 209 19.3 33.8 0.00 0.00 0.00 81 1011.4
20260505162804 15 213 17.7 27.4 0.00 0.00 0.00 81 1011.5
20260505152804 14 202 19.3 29.0 0.00 0.00 0.00 83 1011.7
20260505150805 14 226 16.1 35.4 0.00 0.00 0.00 83 1011.8
20260505150304 14 203 20.9 38.6 0.00 0.00 0.00 83 1011.8
20260505123304 15 201 11.3 19.3 0.00 0.00 0.00 84 1011.5
20260505122805 15 222 9.7 16.1 0.00 0.00 0.00 85 1011.5
20260505122305 14 206 8.0 19.3 0.00 0.00 0.00 85 1011.4
20260505121304 14 197 8.0 19.3 0.00 0.00 0.00 88 1011.4
20260505120806 13 193 8.0 16.1 0.00 0.00 0.00 88 1011.4
20260505115804 13 201 12.9 20.9 0.00 0.00 0.00 87 1011.4
20260505114304 13 213 11.3 24.1 0.00 0.00 0.00 90 1011.3
20260505113304 12 200 11.3 20.9 0.00 0.00 0.00 90 1011.4
20260505111804 12 194 11.3 24.1 0.00 0.00 0.00 90 1011.3
20260505111304 12 203 14.5 25.7 0.00 0.00 0.00 90 1011.3
20260505110804 12 205 14.5 29.0 0.00 0.00 0.00 90 1011.4
20260505110304 12 198 11.3 20.9 0.00 0.00 0.00 89 1011.3
20260505101807 12 207 8.0 11.3 0.00 0.00 0.00 89 1011.0
20260505095807 13 219 8.0 11.3 0.00 0.00 0.00 90 1010.8
20260505095307 13 216 9.7 16.1 0.00 0.00 0.00 90 1010.8
20260505094807 13 208 8.0 16.1 0.00 0.00 0.00 90 1010.7